Tracking 19484 objects as of 20-Jan-2019
HD Live streaming from Space Station
objects crossing your sky now

HIMAWARI 2 (GMS 2)

Track HIMAWARI 2 (GMS 2) now!
HIMAWARI 2 (GMS 2) is classified as:


NORAD ID: 12677
Int'l Code: 1981-076A
Perigee: 35,949.9 km
Apogee: 36,041.9 km
Inclination: 13.3 °
Period: 1,446.4 minutes
Semi major axis: 42366 km
RCS: 4.2567 m2 (large)
Launch date: August 10, 1981
Source: Japan (JPN)
Launch site: TANEGASHIMA SPACE CENTER (TNSTA)
aabbcc
Your satellite tracking list
Your tracking list is empty




NASA's NSSDC Master Catalog

Two Line Element Set (TLE):
1 12677U 81076A   19019.73200329 -.00000331  00000-0  00000+0 0  9998
2 12677  13.3220 329.3207 0010864 279.9285 263.6226  0.99555044105287
Source of the keplerian elements: AFSPC